EIN13J EIDW-KBOS

Flight info

Callsign EIN13J
Flight time N/A
Altitude 40000
Route INKUR8E INKUR DCT NEBIN/M080F400 DCT 5330N02000W 5230N03000W 5130N04000W 5030N05000W DCT BUDAR/N0456F400 N436B ALLEX DCT AJJAY OOSHN5
Aircraft A333/H-SDE3GHIJ2J3J5M1RVWXY/LB2D1

Departure

Time 2026-04-30 07:54
Airport Dublin Airport (EIDW)

Arrival

Time N/A
Airport Boston Logan International Airport (KBOS)
Time Latitude Longitude Altitude Speed Heading
2026-04-30 07:18 53.42353 -6.24249 220 ft 0 kts 323°
2026-04-30 07:37 53.42350 -6.24246 225 ft 3 kts 321°
2026-04-30 07:37 53.42332 -6.24213 217 ft 4 kts 295°
2026-04-30 07:37 53.42325 -6.24171 217 ft 4 kts 274°
2026-04-30 07:37 53.42325 -6.24126 216 ft 4 kts 260°
2026-04-30 07:38 53.42332 -6.24084 216 ft 4 kts 244°
2026-04-30 07:38 53.42343 -6.24054 219 ft 0 kts 223°
2026-04-30 07:43 53.42323 -6.24082 223 ft 6 kts 217°
2026-04-30 07:43 53.42294 -6.24108 223 ft 8 kts 201°
2026-04-30 07:43 53.42258 -6.24127 220 ft 0 kts 199°
2026-04-30 07:43 53.42255 -6.24128 220 ft 0 kts 199°
2026-04-30 07:44 53.42252 -6.24131 222 ft 3 kts 201°
2026-04-30 07:44 53.42208 -6.24178 222 ft 9 kts 219°
2026-04-30 07:44 53.42165 -6.24256 223 ft 9 kts 243°
2026-04-30 07:45 53.42161 -6.24389 222 ft 16 kts 276°
2026-04-30 07:45 53.42172 -6.24580 218 ft 17 kts 276°
2026-04-30 07:45 53.42183 -6.24778 215 ft 17 kts 275°
2026-04-30 07:45 53.42193 -6.24982 222 ft 18 kts 276°
2026-04-30 07:46 53.42206 -6.25194 221 ft 19 kts 274°
2026-04-30 07:46 53.42217 -6.25417 219 ft 19 kts 275°
2026-04-30 07:46 53.42230 -6.25645 219 ft 20 kts 275°
2026-04-30 07:46 53.42243 -6.25878 217 ft 20 kts 275°
2026-04-30 07:47 53.42257 -6.26113 215 ft 21 kts 275°
2026-04-30 07:47 53.42269 -6.26358 215 ft 21 kts 274°
2026-04-30 07:47 53.42283 -6.26609 221 ft 22 kts 277°
2026-04-30 07:47 53.42298 -6.26863 219 ft 22 kts 275°
2026-04-30 07:48 53.42309 -6.27121 222 ft 23 kts 274°
2026-04-30 07:48 53.42323 -6.27385 222 ft 23 kts 279°
2026-04-30 07:48 53.42342 -6.27646 218 ft 23 kts 276°
2026-04-30 07:48 53.42358 -6.27910 218 ft 23 kts 275°
2026-04-30 07:49 53.42368 -6.28163 220 ft 22 kts 275°
2026-04-30 07:49 53.42382 -6.28416 221 ft 21 kts 274°
2026-04-30 07:49 53.42396 -6.28660 222 ft 22 kts 276°
2026-04-30 07:49 53.42407 -6.28862 214 ft 10 kts 274°
2026-04-30 07:50 53.42410 -6.28964 222 ft 8 kts 263°
2026-04-30 07:50 53.42393 -6.29024 220 ft 0 kts 233°
2026-04-30 07:50 53.42388 -6.29035 219 ft 6 kts 231°
2026-04-30 07:50 53.42359 -6.29070 225 ft 0 kts 197°
2026-04-30 07:51 53.42358 -6.29071 225 ft 0 kts 197°
2026-04-30 07:51 53.42357 -6.29071 225 ft 3 kts 196°
2026-04-30 07:51 53.42276 -6.29063 219 ft 20 kts 169°
2026-04-30 07:52 53.42241 -6.28966 224 ft 0 kts 95°
2026-04-30 07:53 53.42240 -6.28946 219 ft 12 kts 95°
2026-04-30 07:53 53.42214 -6.28456 221 ft 71 kts 96°
2026-04-30 07:53 53.42150 -6.27334 222 ft 121 kts 94°
2026-04-30 07:53 53.42065 -6.25721 376 ft 150 kts 94°
2026-04-30 07:54 53.41950 -6.23908 820 ft 159 kts 96°
2026-04-30 07:54 53.41824 -6.22039 1449 ft 163 kts 97°
2026-04-30 07:54 53.41701 -6.20143 2060 ft 168 kts 99°
2026-04-30 07:54 53.41572 -6.18089 2352 ft 187 kts 101°
2026-04-30 07:55 53.41406 -6.15799 2644 ft 210 kts 102°
2026-04-30 07:55 53.41277 -6.13259 3058 ft 232 kts 99°
2026-04-30 07:55 53.41156 -6.10496 3697 ft 242 kts 99°
2026-04-30 07:55 53.41024 -6.07662 4433 ft 246 kts 99°
2026-04-30 07:56 53.40931 -6.04765 5246 ft 252 kts 92°
2026-04-30 07:56 53.41313 -6.01852 6045 ft 264 kts 70°
2026-04-30 07:56 53.42466 -5.99377 6872 ft 279 kts 42°
2026-04-30 07:56 53.44271 -5.98045 7679 ft 293 kts 12°
2026-04-30 07:57 53.46068 -5.97938 8397 ft 300 kts
2026-04-30 07:57 53.48166 -5.98183 9209 ft 305 kts 356°
2026-04-30 07:57 53.50246 -5.99059 10014 ft 314 kts 339°
2026-04-30 07:57 53.52067 -6.01153 10572 ft 328 kts 312°
2026-04-30 07:58 53.53219 -6.04544 10829 ft 345 kts 283°
2026-04-30 07:58 53.53574 -6.08607 11134 ft 359 kts 270°
2026-04-30 07:58 53.53721 -6.12855 11641 ft 369 kts 269°
2026-04-30 07:58 53.53881 -6.17196 12274 ft 375 kts 269°
2026-04-30 07:59 53.54072 -6.21604 12917 ft 381 kts 270°
2026-04-30 07:59 53.54285 -6.26057 13667 ft 383 kts 269°
2026-04-30 07:59 53.54511 -6.30534 14352 ft 386 kts 269°
2026-04-30 08:00 53.54978 -6.39602 15582 ft 392 kts 269°
2026-04-30 08:00 53.55215 -6.44189 16188 ft 395 kts 269°
2026-04-30 08:00 53.55452 -6.48803 16800 ft 398 kts 269°
2026-04-30 08:00 53.55691 -6.53454 17400 ft 400 kts 269°
2026-04-30 08:01 53.55929 -6.58136 18006 ft 403 kts 269°
2026-04-30 08:01 53.56167 -6.62844 18639 ft 404 kts 269°
2026-04-30 08:01 53.56403 -6.67550 19156 ft 405 kts 269°
2026-04-30 08:01 53.56639 -6.72291 19658 ft 408 kts 269°
2026-04-30 08:02 53.57110 -6.81911 20527 ft 418 kts 269°
2026-04-30 08:02 53.57346 -6.86794 21021 ft 420 kts 269°
2026-04-30 08:03 53.57819 -6.96641 21983 ft 425 kts 270°
2026-04-30 08:03 53.58288 -7.06596 22918 ft 429 kts 270°
2026-04-30 08:03 53.58521 -7.11610 23370 ft 432 kts 270°
2026-04-30 08:04 53.58755 -7.16678 23803 ft 434 kts 270°
2026-04-30 08:04 53.58986 -7.21749 24177 ft 436 kts 270°
2026-04-30 08:04 53.59214 -7.26791 24547 ft 438 kts 270°
2026-04-30 08:04 53.59443 -7.31922 24870 ft 442 kts 270°
2026-04-30 08:05 53.59672 -7.37107 25197 ft 445 kts 270°
2026-04-30 08:05 53.59858 -7.42316 25593 ft 446 kts 268°
2026-04-30 08:05 53.59980 -7.47537 25968 ft 447 kts 268°
2026-04-30 08:05 53.60069 -7.52767 26323 ft 448 kts 267°
2026-04-30 08:06 53.60144 -7.58021 26687 ft 450 kts 267°
2026-04-30 08:06 53.60218 -7.63307 27024 ft 452 kts 267°
2026-04-30 08:06 53.60294 -7.68602 27391 ft 454 kts 267°
2026-04-30 08:06 53.60373 -7.73916 27729 ft 455 kts 268°
2026-04-30 08:07 53.60454 -7.79258 28071 ft 457 kts 268°
2026-04-30 08:07 53.60536 -7.84629 28402 ft 460 kts 267°
2026-04-30 08:07 53.60616 -7.90023 28703 ft 462 kts 267°
2026-04-30 08:07 53.60695 -7.95442 29032 ft 464 kts 267°
2026-04-30 08:08 53.60772 -8.00880 29355 ft 465 kts 267°
2026-04-30 08:08 53.60846 -8.06340 29676 ft 467 kts 267°
2026-04-30 08:08 53.60918 -8.11819 29984 ft 469 kts 267°
2026-04-30 08:08 53.60988 -8.17315 30279 ft 471 kts 266°
2026-04-30 08:09 53.61055 -8.22839 30531 ft 473 kts 266°
2026-04-30 08:09 53.61120 -8.28383 30771 ft 475 kts 267°
2026-04-30 08:09 53.61182 -8.33948 31022 ft 477 kts 266°
2026-04-30 08:10 53.61297 -8.44955 31299 ft 485 kts 266°
2026-04-30 08:10 53.61354 -8.50644 31571 ft 486 kts 266°
2026-04-30 08:10 53.61408 -8.56335 31831 ft 487 kts 266°
2026-04-30 08:10 53.61460 -8.62050 32100 ft 488 kts 266°
2026-04-30 08:11 53.61509 -8.67753 32443 ft 487 kts 266°
2026-04-30 08:11 53.61556 -8.73451 32798 ft 485 kts 266°
2026-04-30 08:11 53.61599 -8.79121 33118 ft 484 kts 266°
2026-04-30 08:11 53.61640 -8.84789 33441 ft 484 kts 266°
2026-04-30 08:12 53.61677 -8.90461 33705 ft 485 kts 266°
2026-04-30 08:12 53.61711 -8.96142 33933 ft 486 kts 266°
2026-04-30 08:12 53.61742 -9.01832 34229 ft 485 kts 266°
2026-04-30 08:12 53.61771 -9.07502 34504 ft 483 kts 266°
2026-04-30 08:13 53.61798 -9.13153 34789 ft 482 kts 266°
2026-04-30 08:13 53.61822 -9.18783 35057 ft 481 kts 266°
2026-04-30 08:13 53.61843 -9.24403 35312 ft 479 kts 266°
2026-04-30 08:13 53.61861 -9.30015 35557 ft 479 kts 266°
2026-04-30 08:14 53.61876 -9.35616 35801 ft 478 kts 266°
2026-04-30 08:14 53.61889 -9.41205 36034 ft 478 kts 266°
2026-04-30 08:14 53.61898 -9.46812 36205 ft 479 kts 266°
2026-04-30 08:14 53.61905 -9.52414 36420 ft 478 kts 265°
2026-04-30 08:15 53.61910 -9.58008 36737 ft 476 kts 265°
2026-04-30 08:15 53.61912 -9.63571 36961 ft 475 kts 265°
2026-04-30 08:15 53.61912 -9.69131 37163 ft 474 kts 265°
2026-04-30 08:15 53.61912 -9.74681 37360 ft 474 kts 265°
2026-04-30 08:16 53.61909 -9.80238 37550 ft 474 kts 265°
2026-04-30 08:16 53.61902 -9.85787 37751 ft 474 kts 265°
2026-04-30 08:16 53.61890 -9.91328 37975 ft 473 kts 266°
2026-04-30 08:17 53.61857 -10.02452 38170 ft 476 kts 266°
2026-04-30 08:17 53.61839 -10.08034 38338 ft 476 kts 266°
2026-04-30 08:17 53.61818 -10.13597 38529 ft 475 kts 266°
2026-04-30 08:17 53.61796 -10.19167 38710 ft 475 kts 266°
2026-04-30 08:18 53.61770 -10.24729 38871 ft 474 kts 266°
2026-04-30 08:18 53.61742 -10.30276 39001 ft 474 kts 266°
2026-04-30 08:18 53.61711 -10.35826 39123 ft 474 kts 266°
2026-04-30 08:18 53.61677 -10.41369 39248 ft 473 kts 266°
2026-04-30 08:19 53.61641 -10.46843 39380 ft 473 kts 266°
2026-04-30 08:19 53.61603 -10.52375 39505 ft 473 kts 266°
2026-04-30 08:19 53.61561 -10.57910 39604 ft 473 kts 266°
2026-04-30 08:19 53.61518 -10.63443 39714 ft 473 kts 266°
2026-04-30 08:20 53.61471 -10.68976 39827 ft 472 kts 266°